Regional Weather Roundup
Issued by NWS Goodland, KS

Home | Current Version | Previous Version | Text Only | Print | Product List | Glossary On
Versions: 1 2 3 4 5 6 7 8 9 10 11 12 13 14 15 16 17 18 19 20 21 22 23 24 25 26 27 28 29 30 31 32 33 34 35 36 37 38 39 40 41 42 43 44 45 46 47 48 49 50
000
ASUS43 KGLD 060908
RWRGLD

GOODLAND FORECAST AREA HOURLY WEATHER ROUNDUP
NATIONAL WEATHER SERVICE GOODLAND KS
300 AM MDT MON JUL 06 2015

...OFFICIAL OBSERVATIONS...

CITY           SKY/WX    TMP DP  RH WIND       PRES   REMARKS
GOODLAND KS    CLOUDY    68  66  93 N17G23    29.93S
HILL CITY KS   CLOUDY    82  65  56 S7        29.83F
IMPERIAL NEB   CLOUDY    66  62  87 N14       29.97R
MCCOOK NEB     CLOUDY    70  67  90 NE9       29.87R
AKRON CO       CLOUDY    63  61  93 N17       30.08R
BURLINGTON CO  CLOUDY    66  63  90 N14       30.01R
LIMON CO       LGT RAIN  61  60  97 N15       30.12S
$$

...UNOFFICIAL OBSERVATIONS...

CITY           SKY/WX    TMP DP  RH WIND       PRES   REMARKS
COLBY KS       PTCLDY    72  66  83 N12       29.89S
GOVE KS          N/A     78  32  18 MISG        N/A
NORTON KS      LGT RAIN  73  63  68 CALM      29.84
SHARON SPRINGS   N/A     69  62  80 NW13G20     N/A
KIT CARSON CO    N/A     65  61  86 MISG        N/A
$$



USA.gov is the U.S. government's official web portal to all federal, state and local government web resources and services.